sat.trackr.live / text

‹ back to catalog

STARLINK-5519

NORAD 57223 · 2023-094F

PAYLOAD ACTIVE UNKNOWN

§ Identity

Operator
Country
US
Launch date
2023-07-07
Launch site
AFWTR
Launch vehicle
Mass (kg)
RCS (m²)

Purposes: comms

External: N2YO · Heavens-Above · Gunter

§ Orbital elements

Epoch: 2026-05-24T20:03:04.820544Z

Period
94.29 min
Inclination
43.0008°
Eccentricity
0.0000511
Mean motion
15.27195675 rev/d
Perigee alt
483.8 km
Apogee alt
484.6 km
Semi-major
6,862.3 km
B*
1.8221e-3
RAAN
323.8751°
Arg perigee
175.7332°
Mean anomaly
184.3524°
Rev number
15,872

§ Raw data

STARLINK-55191 57223U 23094F   26144.83547246  .00049628  00000+0  18221-2 0  99972 57223  43.0008 323.8751 0000511 175.7332 184.3524 15.27195675158728

JSON: /api/v1/satellites/57223 · /tle

For live sub-satellite position, see the globe view (requires WebGL).

§ Visibility from observer

Set your observer location to see the next 7 days of passes ≥ 10°. The values pass through the URL so the page stays shareable.

No JS? Fill the form by hand. The geolocation button needs JavaScript.